YUZGU 8 (53306 NORAD) Tracking and Keplerian Element Data

This shows tracking and keplerian element data for the satellite.

Feedback or suggestion? Click here.




ElementValue
Catalog53306
NameYUZGU 8
Epoch Orbit1048
Epoch Day270.07848915
Epoch Year2022
RAAN190.6417
Inclination51.6402
Eccentricity0.0001818
Argument of Perigee208.4952
Mean Anonmoly151.594
Mean Motion15.55419039
Decay Rate0.0005709
L11 53306U 98067TR 22270.07848915 .00057090 00000+0 82365-3 0 9999
L22 53306 51.6402 190.6417 0001818 208.4952 151.5940 15.55419039 10483

Live tracking and technical data element details for YUZGU 8 (NORAD 53306). YUZGU 8 can be tracked NOW for your location showing map with azimuth and elevation plus other details from your city location.

Track the satellite on the map from your city or location and see movement details for azimuth, elevation, latitude, longitude, range, height, and movement on the map or in text.







IsCatalogInMostPopularTable: catalog: 53306, numindb: 4
Update: records affected: 1



GetName: 53306 YUZGU 8

Hit Count: updated at: Wed, 28 Sep 2022 22:20:34 GMT